Toronto, Ontario

6:09 AM EDT on March 25, 2017 (GMT -0400)
Toronto-City Centre

Weather History for CYTZ - December, 2013

Change the Weather History Date:

Thursday, December 19, 2013

  Actual Average Record
Temperature  
Mean Temperature 33 °F -  
Max Temperature 37 °F 31 °F 45 °F (2012)
Min Temperature 29 °F 20 °F -5 °F (2004)
Degree Days  
Heating Degree Days 32    
Moisture  
Dew Point 28 °F    
Average Humidity 77    
Maximum Humidity 87    
Minimum Humidity 64    
Precipitation  
Precipitation 0.03 in 0.08 in - ()
Sea Level Pressure  
Sea Level Pressure 29.97 in    
Wind  
Wind Speed 13 mph ()    
Max Wind Speed 24 mph    
Max Gust Speed 28 mph    
Visibility 8.4 miles    
Events Rain    
Averages and records for this station are not official NWS values.
T = Trace of Precipitation, MM = Missing Value Source: Averaged Metar Reports

Daily Weather History Graph

Daily Weather History Graph

Search for Another Location

Airport or City:

Trip Planner

Search our weather history database for the weather conditions in past years. The results will help you decide how hot, cold, wet, or windy it might be!

Date:

Astronomy

Dec. 19, 2013 Rise Set
Actual Time 7:46 AM EST 4:42 PM EST
Civil Twilight 7:14 AM EST 5:15 PM EST
Nautical Twilight 6:37 AM EST 5:52 PM EST
Astronomical Twilight 6:02 AM EST 6:27 PM EST
Moon 7:11 PM EST (12/19) 9:01 AM EST (12/19)
Length of Visible Light 10h 01m
Length of Day
8h 56m
Waning Gibbous, 95% of the Moon is Illuminated
Dec 19
Waning Gibbous
Dec 25
Last Quarter
Jan 1
New
Jan 7
First Quarter
Jan 15
Full

Hourly Weather History & Observations

Time (EST) Temp. Windchill Dew Point Humidity Pressure Visibility Wind Dir Wind Speed Gust Speed Precip Events Conditions
12:00 AM 32.0 °F 19.5 °F 24.8 °F 75% 30.00 in 9.0 mi SW 21.9 mph 27.6 mph N/A   Overcast
12:02 AM 32.0 °F 18.9 °F 24.8 °F 75% 29.99 in 9.0 mi SW 24.2 mph - N/A   Overcast
12:21 AM 32.0 °F 19.8 °F 24.8 °F 75% 29.97 in 9.0 mi SW 20.7 mph - N/A   Overcast
1:00 AM 31 °F - 23 °F 64% 29.94 in 10 mi SSW 21.9 mph - -   Overcast
1:00 AM 32.0 °F 19.2 °F 23.0 °F 69% 29.94 in 9.0 mi SSW 23.0 mph - N/A   Overcast
2:00 AM 32.0 °F 20.5 °F 23.0 °F 69% 29.92 in 9.0 mi SSW 18.4 mph 25.3 mph N/A   Scattered Clouds
3:00 AM 32.0 °F 20.5 °F 23.0 °F 69% 29.91 in 9.0 mi SW 18.4 mph - N/A   Clear
4:00 AM 32.0 °F 21.2 °F 24.8 °F 75% 29.88 in 9.0 mi SW 16.1 mph - N/A   Overcast
5:00 AM 32.0 °F 21.2 °F 26.6 °F 80% 29.87 in 9.0 mi WSW 16.1 mph 23.0 mph N/A   Overcast
6:00 AM 32.0 °F 21.6 °F 26.6 °F 80% 29.87 in 9.0 mi WSW 15.0 mph - N/A   Overcast
7:00 AM 31 °F - 26 °F 72% 29.88 in 10 mi WSW 15.0 mph - -   Overcast
7:00 AM 32.0 °F 22.1 °F 24.8 °F 75% 29.87 in 9.0 mi WSW 13.8 mph - N/A   Overcast
8:00 AM 32.0 °F 20.8 °F 24.8 °F 75% 29.88 in 9.0 mi WSW 17.3 mph - N/A   Mostly Cloudy
9:00 AM 32.0 °F 22.5 °F 24.8 °F 75% 29.90 in 9.0 mi West 12.7 mph - N/A   Overcast
10:00 AM 33.8 °F 24.8 °F 24.8 °F 70% 29.93 in 9.0 mi West 12.7 mph - N/A   Overcast
11:00 AM 33.8 °F 25.8 °F 24.8 °F 70% 29.95 in 9.0 mi West 10.4 mph - N/A   Overcast
12:00 PM 35.6 °F 28.6 °F 26.6 °F 70% 29.95 in 9.0 mi WSW 9.2 mph - N/A   Mostly Cloudy
1:00 PM 36 °F - 29 °F 68% 29.96 in 10 mi SW 5.8 mph - -  
1:00 PM 35.6 °F 30.7 °F 30.2 °F 81% 29.95 in 9.0 mi SW 5.8 mph - N/A   Mostly Cloudy
2:00 PM 37.4 °F 32.1 °F 28.4 °F 70% 29.96 in 9.0 mi West 6.9 mph - N/A   Clear
3:00 PM 37.4 °F 33.8 °F 28.4 °F 70% 29.98 in 9.0 mi WNW 4.6 mph - N/A   Partly Cloudy
4:00 PM 37.4 °F 32.1 °F 30.2 °F 75% 29.99 in 9.0 mi West 6.9 mph - N/A   Mostly Cloudy
4:11 PM 37.4 °F 30.8 °F 30.2 °F 75% 29.99 in 9.0 mi West 9.2 mph - N/A Rain Light Rain
4:20 PM 37.4 °F 30.3 °F 30.2 °F 75% 29.99 in 9.0 mi West 10.4 mph - N/A   Partly Cloudy
5:00 PM 35.6 °F 28.6 °F 32.0 °F 87% 30.00 in 9.0 mi West 9.2 mph - N/A   Overcast
6:00 PM 35.6 °F 30.7 °F 32.0 °F 87% 30.04 in 9.0 mi WSW 5.8 mph - N/A   Scattered Clouds
7:00 PM 36 °F - 31 °F 77% 30.04 in 9 mi West 5.8 mph - -   Overcast
7:00 PM 35.6 °F 30.7 °F 32.0 °F 87% 30.04 in 9.0 mi West 5.8 mph - N/A   Overcast
8:00 PM 37.4 °F 33.8 °F 30.2 °F 75% 30.03 in 9.0 mi West 4.6 mph - N/A   Overcast
8:04 PM 35.6 °F 32.8 °F 30.2 °F 81% 30.03 in 9.0 mi West 3.5 mph - N/A   Overcast
8:25 PM 33.8 °F 29.6 °F 30.2 °F 87% 30.03 in 7.0 mi West 4.6 mph - N/A   Mostly Cloudy
9:00 PM 35.6 °F - 32.0 °F 87% 30.03 in 7.0 mi Variable 2.3 mph - N/A   Mostly Cloudy
10:00 PM 33.8 °F - 30.2 °F 87% 30.03 in 8.0 mi Calm Calm - N/A   Mostly Cloudy
11:00 PM 35.6 °F - 30.2 °F 81% 30.01 in 7.0 mi ENE 2.3 mph - N/A   Overcast
11:27 PM 35.6 °F 32.8 °F 30.2 °F 81% 30.01 in 6.0 mi East 3.5 mph - N/A Rain Light Rain
11:35 PM 35.6 °F 32.8 °F 30.2 °F 81% 30.01 in 5.0 mi East 3.5 mph - N/A Rain Light Rain
11:40 PM 35.6 °F 31.7 °F 30.2 °F 81% 30.01 in 4.0 mi ENE 4.6 mph - N/A Rain Light Rain
11:45 PM 35.6 °F 31.7 °F 30.2 °F 81% 30.01 in 3.0 mi ENE 4.6 mph - N/A   Overcast